Location: Windsor
(43.2292°N, 89.3015°W)
Time: 00:28:08
(UTC+00:00)

DIWATA 2B (PO-101) - Pass Details

Date: 26 June 2022
Orbit: 583 x 599 km, 98.0° (Epoch: 15 August)

Event Time Altitude Azimuth Distance (km) Brightness Sun altitude
Exits shadow 09:00:05 14° 247° (WSW) 1,673 ? -11.6°
Maximum altitude 09:01:23 16° 268° (W) 1,581 ? -11.5°
Drops below altitude 10° 09:04:00 10° 307° (NW) 1,944 ? -11.1°
Sets 09:06:57 0° 329° (NNW) 2,854 ? -10.8°
